AFR028 KLAX-NTAA

Flight info

Callsign AFR028
Flight time N/A
Altitude 38000
Route ZILLI5 FICKY DCT 30N123W 25N125W 20N127W 15N129W 10N131W 05N134W/N0485F400 0330N13454W 00N137W 05S140W 10S143W 15S147W DCT ASOKI ASOKI4K
Aircraft A359/H-SDE2E3GHIJ3J4J5LM1ORWXY/LB1D1

Departure

Time N/A
Airport Los Angeles International Airport (KLAX)

Arrival

Time 2026-04-28 16:37
Airport Fa'a'ā International Airport (NTAA)
Time Latitude Longitude Altitude Speed Heading
2026-04-28 11:44 13.53878 -129.59332 37883 ft 457 kts 204°
2026-04-28 11:44 13.50915 -129.60527 37880 ft 457 kts 204°
2026-04-28 11:45 13.44986 -129.62918 37883 ft 457 kts 204°
2026-04-28 11:45 13.39069 -129.65303 37888 ft 457 kts 204°
2026-04-28 11:46 13.33143 -129.67689 37885 ft 457 kts 204°
2026-04-28 11:46 13.27220 -129.70073 37868 ft 457 kts 204°
2026-04-28 11:47 13.21290 -129.72459 37886 ft 458 kts 204°
2026-04-28 11:47 13.15344 -129.74849 37876 ft 459 kts 204°
2026-04-28 11:48 13.09438 -129.77222 37872 ft 459 kts 204°
2026-04-28 11:48 13.03493 -129.79609 37888 ft 458 kts 204°
2026-04-28 11:49 12.97548 -129.81994 37881 ft 459 kts 204°
2026-04-28 11:49 12.91574 -129.84392 37881 ft 461 kts 204°
2026-04-28 11:50 12.85605 -129.86786 37878 ft 461 kts 204°
2026-04-28 11:50 12.79633 -129.89180 37879 ft 462 kts 204°
2026-04-28 11:51 12.73640 -129.91581 37878 ft 461 kts 204°
2026-04-28 11:51 12.67692 -129.93962 37878 ft 461 kts 204°
2026-04-28 11:52 12.61693 -129.96363 37875 ft 463 kts 204°
2026-04-28 11:52 12.55685 -129.98766 37875 ft 464 kts 204°
2026-04-28 11:53 12.49666 -130.01172 37876 ft 464 kts 204°
2026-04-28 11:53 12.43628 -130.03584 37878 ft 464 kts 205°
2026-04-28 11:54 12.37587 -130.05997 37874 ft 466 kts 205°
2026-04-28 11:54 12.31567 -130.08401 37876 ft 469 kts 205°
2026-04-28 11:55 12.25448 -130.10843 37874 ft 470 kts 205°
2026-04-28 11:55 12.19391 -130.13257 37873 ft 470 kts 205°
2026-04-28 11:56 12.13286 -130.15690 37873 ft 470 kts 205°
2026-04-28 11:56 12.07190 -130.18119 37853 ft 470 kts 205°
2026-04-28 11:57 12.01096 -130.20546 37868 ft 473 kts 205°
2026-04-28 11:57 11.94979 -130.22981 37867 ft 474 kts 205°
2026-04-28 11:58 11.88820 -130.25430 37878 ft 474 kts 205°
2026-04-28 11:58 11.82653 -130.27882 37868 ft 476 kts 205°
2026-04-28 11:59 11.76466 -130.30342 37859 ft 477 kts 205°
2026-04-28 11:59 11.70275 -130.32802 37862 ft 481 kts 205°
2026-04-28 12:00 11.64034 -130.35280 37870 ft 481 kts 205°
2026-04-28 12:00 11.57787 -130.37758 37870 ft 481 kts 205°
2026-04-28 12:01 11.51541 -130.40235 37871 ft 481 kts 205°
2026-04-28 12:01 11.45311 -130.42704 37868 ft 481 kts 205°
2026-04-28 12:02 11.40072 -130.44781 37870 ft 484 kts 205°
2026-04-28 12:02 11.33819 -130.47259 37870 ft 485 kts 205°
2026-04-28 12:03 11.27510 -130.49756 37870 ft 486 kts 205°
2026-04-28 12:03 11.21225 -130.52243 37870 ft 487 kts 205°
2026-04-28 12:04 11.14893 -130.54747 37870 ft 487 kts 205°
2026-04-28 12:04 11.08586 -130.57241 37870 ft 487 kts 205°
2026-04-28 12:05 11.02263 -130.59739 37870 ft 487 kts 205°
2026-04-28 12:05 10.95935 -130.62239 37867 ft 487 kts 205°
2026-04-28 12:06 10.89656 -130.64718 37867 ft 487 kts 205°
2026-04-28 12:06 10.83326 -130.67217 37868 ft 488 kts 205°
2026-04-28 12:07 10.77007 -130.69710 37867 ft 489 kts 205°
2026-04-28 12:07 10.70647 -130.72217 37864 ft 489 kts 205°
2026-04-28 12:08 10.64307 -130.74715 37871 ft 489 kts 205°
2026-04-28 12:08 10.57924 -130.77230 37864 ft 489 kts 205°
2026-04-28 12:09 10.51566 -130.79734 37864 ft 490 kts 205°
2026-04-28 12:09 10.45226 -130.82229 37864 ft 491 kts 205°
2026-04-28 12:10 10.38857 -130.84734 37867 ft 491 kts 205°
2026-04-28 12:10 10.32505 -130.87232 37864 ft 491 kts 205°
2026-04-28 12:11 10.26103 -130.89748 37863 ft 491 kts 205°
2026-04-28 12:11 10.19754 -130.92243 37865 ft 491 kts 205°
2026-04-28 12:12 10.13355 -130.94756 37861 ft 492 kts 205°
2026-04-28 12:12 10.07007 -130.97248 37861 ft 492 kts 205°
2026-04-28 12:13 10.00665 -130.99828 37861 ft 489 kts 210°
2026-04-28 12:13 9.94750 -131.03165 37861 ft 486 kts 214°
2026-04-28 12:14 9.88924 -131.06695 37861 ft 486 kts 215°
2026-04-28 12:14 9.83125 -131.10250 37861 ft 487 kts 215°
2026-04-28 12:15 9.77344 -131.13781 37864 ft 487 kts 215°
2026-04-28 12:15 9.71529 -131.17319 37861 ft 486 kts 215°
2026-04-28 12:16 9.65765 -131.20822 37860 ft 486 kts 215°
2026-04-28 12:16 9.59956 -131.24350 37861 ft 487 kts 215°
2026-04-28 12:17 9.54155 -131.27872 37861 ft 487 kts 215°
2026-04-28 12:17 9.48341 -131.31401 37861 ft 487 kts 215°
2026-04-28 12:18 9.42526 -131.34929 37862 ft 487 kts 215°
2026-04-28 12:18 9.36711 -131.38456 37855 ft 486 kts 215°
2026-04-28 12:19 9.30905 -131.41977 37860 ft 487 kts 215°
2026-04-28 12:19 9.25107 -131.45490 37861 ft 487 kts 215°
2026-04-28 12:20 9.19274 -131.49023 37859 ft 487 kts 215°
2026-04-28 12:20 9.13465 -131.52541 37859 ft 487 kts 215°
2026-04-28 12:21 9.07654 -131.56059 37858 ft 487 kts 215°
2026-04-28 12:21 9.01842 -131.59576 37859 ft 488 kts 214°
2026-04-28 12:22 8.95999 -131.63110 37858 ft 488 kts 214°
2026-04-28 12:22 8.90181 -131.66628 37858 ft 488 kts 214°
2026-04-28 12:23 8.84340 -131.70158 37858 ft 488 kts 214°
2026-04-28 12:23 8.78482 -131.73697 37856 ft 488 kts 214°
2026-04-28 12:24 8.72681 -131.77201 37856 ft 489 kts 214°
2026-04-28 12:24 8.66828 -131.80734 37856 ft 489 kts 215°
2026-04-28 12:25 8.60992 -131.84257 37856 ft 489 kts 215°
2026-04-28 12:25 8.55152 -131.87779 37859 ft 489 kts 215°
2026-04-28 12:26 8.49317 -131.91299 37858 ft 489 kts 215°
2026-04-28 12:26 8.43479 -131.94818 37859 ft 489 kts 215°
2026-04-28 12:27 8.37597 -131.98363 37859 ft 491 kts 215°
2026-04-28 12:27 8.31758 -132.01881 37860 ft 491 kts 215°
2026-04-28 12:28 8.25891 -132.05414 37859 ft 491 kts 215°
2026-04-28 12:28 8.20039 -132.08937 37859 ft 491 kts 215°
2026-04-28 12:29 8.11217 -132.14245 37860 ft 491 kts 215°
2026-04-28 12:30 8.05394 -132.17748 37857 ft 491 kts 215°
2026-04-28 12:30 7.99502 -132.21290 37858 ft 491 kts 215°
2026-04-28 12:31 7.93640 -132.24814 37859 ft 491 kts 215°
2026-04-28 12:31 7.87778 -132.28337 37858 ft 491 kts 215°
2026-04-28 12:32 7.81902 -132.31866 37856 ft 491 kts 215°
2026-04-28 12:32 7.76053 -132.35379 37856 ft 491 kts 215°
2026-04-28 12:33 7.70165 -132.38913 37856 ft 491 kts 215°
2026-04-28 12:33 7.64273 -132.42449 37856 ft 492 kts 215°
2026-04-28 12:34 7.58397 -132.45974 37861 ft 492 kts 215°
2026-04-28 12:34 7.52538 -132.49486 37861 ft 492 kts 216°
2026-04-28 12:35 7.46663 -132.53008 37858 ft 491 kts 216°
2026-04-28 12:35 7.40772 -132.56540 37856 ft 492 kts 216°
2026-04-28 12:36 7.34895 -132.60062 37853 ft 492 kts 216°
2026-04-28 12:36 7.29013 -132.63585 37855 ft 492 kts 216°
2026-04-28 12:37 7.23165 -132.67086 37856 ft 492 kts 217°
2026-04-28 12:37 7.17255 -132.70625 37857 ft 493 kts 216°
2026-04-28 12:38 7.11371 -132.74146 37853 ft 493 kts 216°
2026-04-28 12:38 7.05452 -132.77686 37856 ft 493 kts 216°
2026-04-28 12:39 6.99585 -132.81195 37853 ft 493 kts 216°
2026-04-28 12:39 6.93680 -132.84724 37852 ft 493 kts 217°
2026-04-28 12:40 6.87784 -132.88249 37856 ft 493 kts 217°
2026-04-28 12:40 6.81872 -132.91782 37853 ft 493 kts 217°
2026-04-28 12:41 6.75992 -132.95294 37853 ft 493 kts 217°
2026-04-28 12:41 6.70085 -132.98821 37853 ft 494 kts 217°
2026-04-28 12:42 6.64177 -133.02348 37856 ft 493 kts 217°
2026-04-28 12:42 6.58270 -133.05873 37854 ft 493 kts 217°
2026-04-28 12:43 6.52378 -133.09389 37851 ft 492 kts 217°
2026-04-28 12:43 6.46513 -133.12888 37851 ft 493 kts 217°
2026-04-28 12:44 6.40605 -133.16411 37851 ft 493 kts 217°
2026-04-28 12:44 6.34734 -133.19911 37845 ft 493 kts 217°
2026-04-28 12:45 6.28836 -133.23426 37849 ft 493 kts 217°
2026-04-28 12:45 6.22919 -133.26952 37848 ft 493 kts 217°
2026-04-28 12:46 6.17035 -133.30458 37848 ft 493 kts 217°
2026-04-28 12:46 6.11126 -133.33976 37848 ft 493 kts 217°
2026-04-28 12:47 6.05191 -133.37510 37845 ft 494 kts 217°
2026-04-28 12:47 5.99310 -133.41011 37845 ft 494 kts 217°
2026-04-28 12:48 5.93399 -133.44528 37846 ft 494 kts 217°
2026-04-28 12:48 5.87491 -133.48042 37845 ft 494 kts 217°
2026-04-28 12:49 5.81576 -133.51560 37842 ft 494 kts 217°
2026-04-28 12:49 5.75680 -133.55067 37843 ft 494 kts 217°
2026-04-28 12:50 5.69774 -133.58578 37843 ft 494 kts 217°
2026-04-28 12:50 5.63859 -133.62093 37843 ft 494 kts 217°
2026-04-28 12:51 5.57929 -133.65617 37841 ft 494 kts 217°
2026-04-28 12:51 5.53026 -133.68529 37842 ft 494 kts 217°
2026-04-28 12:52 5.46131 -133.72625 37841 ft 494 kts 217°
2026-04-28 12:52 5.40240 -133.76123 37840 ft 494 kts 217°
2026-04-28 12:53 5.35307 -133.79051 37840 ft 494 kts 217°
2026-04-28 12:53 5.29407 -133.82553 37840 ft 493 kts 218°
2026-04-28 12:54 5.23486 -133.86066 37841 ft 493 kts 218°
2026-04-28 12:54 5.17585 -133.89568 37840 ft 493 kts 218°
2026-04-28 12:55 5.11663 -133.93080 37840 ft 494 kts 218°
2026-04-28 12:55 5.05767 -133.96577 37840 ft 494 kts 218°
2026-04-28 12:56 4.99860 -134.00080 37838 ft 494 kts 218°
2026-04-28 12:56 4.93980 -134.03598 37837 ft 493 kts 218°
2026-04-28 12:57 4.88085 -134.07151 37839 ft 493 kts 218°
2026-04-28 12:57 4.82194 -134.10700 37840 ft 492 kts 218°
2026-04-28 12:58 4.76336 -134.14223 37840 ft 493 kts 218°
2026-04-28 12:58 4.70444 -134.17763 37840 ft 493 kts 218°
2026-04-28 12:59 4.64601 -134.21274 37840 ft 493 kts 218°
2026-04-28 12:59 4.58707 -134.24813 37837 ft 492 kts 218°
2026-04-28 13:00 4.52837 -134.28338 37842 ft 492 kts 218°
2026-04-28 13:00 4.46992 -134.31848 37845 ft 492 kts 218°
2026-04-28 13:01 4.41120 -134.35373 37843 ft 492 kts 218°
2026-04-28 13:01 4.35228 -134.38910 37839 ft 492 kts 218°
2026-04-28 13:02 4.29370 -134.42425 37846 ft 491 kts 218°
2026-04-28 13:02 4.23517 -134.45936 37841 ft 490 kts 218°
2026-04-28 13:03 4.17692 -134.49431 37837 ft 490 kts 218°
2026-04-28 13:03 4.11830 -134.52947 37843 ft 490 kts 218°
2026-04-28 13:04 4.05993 -134.56447 37843 ft 490 kts 218°
2026-04-28 13:04 4.00139 -134.59957 37842 ft 489 kts 218°
2026-04-28 13:05 3.94318 -134.63446 37839 ft 489 kts 218°
2026-04-28 13:05 3.88483 -134.66944 37842 ft 489 kts 218°
2026-04-28 13:06 3.82619 -134.70458 37842 ft 489 kts 218°
2026-04-28 13:06 3.76789 -134.73951 37840 ft 489 kts 217°
2026-04-28 13:07 3.70981 -134.77431 37834 ft 488 kts 217°
2026-04-28 13:07 3.65163 -134.80915 37840 ft 488 kts 217°
2026-04-28 13:08 3.59325 -134.84412 37842 ft 488 kts 217°
2026-04-28 13:08 3.53508 -134.87896 37838 ft 488 kts 217°
2026-04-28 13:09 3.47662 -134.91399 37839 ft 488 kts 217°
2026-04-28 13:09 3.41864 -134.94886 37840 ft 488 kts 218°
2026-04-28 13:10 3.36025 -134.98402 37837 ft 488 kts 218°
2026-04-28 13:10 3.30231 -135.01889 37840 ft 488 kts 217°
2026-04-28 13:11 3.24427 -135.05379 37843 ft 487 kts 217°
2026-04-28 13:11 3.18618 -135.08872 37840 ft 487 kts 217°
2026-04-28 13:12 3.12793 -135.12374 37840 ft 487 kts 217°
2026-04-28 13:12 3.07017 -135.15847 37840 ft 487 kts 217°
2026-04-28 13:13 3.01181 -135.19356 37843 ft 487 kts 217°
2026-04-28 13:13 2.95387 -135.22838 37840 ft 487 kts 217°
2026-04-28 13:14 2.89577 -135.26329 37840 ft 487 kts 217°
2026-04-28 13:14 2.83776 -135.29815 37836 ft 487 kts 217°
2026-04-28 13:14 2.80857 -135.31569 37962 ft 487 kts 217°
2026-04-28 13:15 2.77997 -135.33287 38226 ft 485 kts 218°
2026-04-28 13:15 2.75101 -135.35026 38481 ft 483 kts 218°
2026-04-28 13:15 2.72224 -135.36752 38676 ft 482 kts 218°
2026-04-28 13:15 2.69354 -135.38476 38877 ft 480 kts 218°
2026-04-28 13:16 2.66483 -135.40199 39080 ft 478 kts 218°
2026-04-28 13:16 2.63637 -135.41909 39239 ft 477 kts 218°
2026-04-28 13:16 2.60792 -135.43618 39381 ft 477 kts 218°
2026-04-28 13:16 2.57948 -135.45327 39519 ft 476 kts 218°
2026-04-28 13:17 2.55116 -135.47028 39661 ft 475 kts 218°
2026-04-28 13:17 2.52277 -135.48733 39793 ft 474 kts 218°
2026-04-28 13:17 2.49455 -135.50429 39835 ft 476 kts 218°
2026-04-28 13:18 2.43806 -135.53822 39833 ft 475 kts 218°
2026-04-28 13:18 2.38130 -135.57230 39841 ft 475 kts 218°
2026-04-28 13:19 2.32459 -135.60634 39839 ft 475 kts 218°
2026-04-28 13:19 2.26788 -135.64038 39839 ft 475 kts 218°
2026-04-28 13:20 2.21154 -135.67419 39839 ft 475 kts 218°
2026-04-28 13:20 2.15485 -135.70822 39840 ft 475 kts 218°
2026-04-28 13:21 2.09822 -135.74220 39839 ft 474 kts 218°
2026-04-28 13:21 2.04159 -135.77618 39842 ft 474 kts 218°
2026-04-28 13:22 1.98528 -135.80996 39840 ft 474 kts 218°
2026-04-28 13:22 1.92868 -135.84392 39842 ft 474 kts 218°
2026-04-28 13:23 1.87211 -135.87786 39841 ft 473 kts 217°
2026-04-28 13:23 1.81558 -135.91176 39840 ft 473 kts 217°
2026-04-28 13:24 1.75939 -135.94547 39841 ft 473 kts 217°
2026-04-28 13:24 1.70288 -135.97936 39842 ft 473 kts 217°
2026-04-28 13:25 1.64663 -136.01310 39841 ft 472 kts 217°
2026-04-28 13:25 1.59032 -136.04686 39839 ft 471 kts 217°
2026-04-28 13:26 1.53400 -136.08063 39838 ft 471 kts 217°
2026-04-28 13:26 1.47773 -136.11438 39839 ft 471 kts 217°
2026-04-28 13:27 1.42156 -136.14806 39837 ft 471 kts 217°
2026-04-28 13:27 1.36560 -136.18161 39840 ft 471 kts 217°
2026-04-28 13:28 1.30943 -136.21528 39837 ft 470 kts 217°
2026-04-28 13:28 1.25312 -136.24904 39840 ft 470 kts 217°
2026-04-28 13:29 1.19728 -136.28252 39838 ft 470 kts 217°
2026-04-28 13:29 1.14108 -136.31621 39840 ft 470 kts 217°
2026-04-28 13:30 1.08473 -136.34998 39839 ft 470 kts 217°
2026-04-28 13:30 1.02882 -136.38349 39840 ft 470 kts 217°
2026-04-28 13:31 0.94484 -136.43383 39840 ft 470 kts 217°
2026-04-28 13:31 0.88850 -136.46759 39839 ft 470 kts 217°
2026-04-28 13:32 0.83242 -136.50120 39842 ft 470 kts 217°
2026-04-28 13:32 0.77634 -136.53481 39843 ft 471 kts 217°
2026-04-28 13:33 0.72013 -136.56850 39842 ft 471 kts 217°
2026-04-28 13:33 0.66410 -136.60207 39842 ft 471 kts 217°
2026-04-28 13:34 0.60777 -136.63582 39842 ft 471 kts 217°
2026-04-28 13:34 0.55161 -136.66947 39842 ft 471 kts 217°
2026-04-28 13:35 0.49533 -136.70319 39842 ft 472 kts 217°
2026-04-28 13:35 0.43919 -136.73683 39842 ft 472 kts 217°
2026-04-28 13:36 0.38292 -136.77055 39842 ft 472 kts 217°
2026-04-28 13:36 0.32661 -136.80428 39842 ft 472 kts 217°
2026-04-28 13:37 0.27016 -136.83810 39844 ft 472 kts 217°
2026-04-28 13:37 0.21398 -136.87176 39844 ft 472 kts 217°
2026-04-28 13:38 0.15756 -136.90557 39843 ft 472 kts 217°
2026-04-28 13:38 0.10121 -136.93932 39842 ft 472 kts 217°
2026-04-28 13:39 0.04508 -136.97296 39844 ft 472 kts 217°
2026-04-28 13:39 -0.01126 -137.00673 39843 ft 472 kts 217°
2026-04-28 13:40 -0.06750 -137.04039 39843 ft 472 kts 217°
2026-04-28 13:40 -0.11441 -137.06843 39841 ft 472 kts 217°
2026-04-28 13:41 -0.17063 -137.10204 39839 ft 472 kts 217°
2026-04-28 13:41 -0.22727 -137.13591 39842 ft 472 kts 217°
2026-04-28 13:42 -0.28352 -137.16956 39845 ft 472 kts 217°
2026-04-28 13:42 -0.33982 -137.20324 39843 ft 471 kts 217°
2026-04-28 13:43 -0.39598 -137.23683 39842 ft 471 kts 217°
2026-04-28 13:43 -0.45233 -137.27055 39842 ft 471 kts 217°
2026-04-28 13:44 -0.50837 -137.30408 39842 ft 471 kts 217°
2026-04-28 13:44 -0.56448 -137.33765 39847 ft 471 kts 217°
2026-04-28 13:45 -0.62084 -137.37136 39842 ft 471 kts 217°
2026-04-28 13:45 -0.67690 -137.40491 39842 ft 471 kts 217°
2026-04-28 13:46 -0.73312 -137.43854 39839 ft 471 kts 217°
2026-04-28 13:46 -0.78936 -137.47219 39842 ft 471 kts 217°
2026-04-28 13:47 -0.84561 -137.50585 39853 ft 471 kts 217°
2026-04-28 13:47 -0.90173 -137.53943 39843 ft 472 kts 217°
2026-04-28 13:48 -0.95798 -137.57310 39845 ft 472 kts 217°
2026-04-28 13:48 -1.01421 -137.60674 39845 ft 472 kts 217°
2026-04-28 13:49 -1.07043 -137.64039 39848 ft 472 kts 217°
2026-04-28 13:49 -1.12704 -137.67426 39848 ft 472 kts 217°
2026-04-28 13:50 -1.18202 -137.70717 39848 ft 473 kts 217°
2026-04-28 13:50 -1.23813 -137.74075 39848 ft 473 kts 217°
2026-04-28 13:51 -1.29463 -137.77457 39851 ft 473 kts 217°
2026-04-28 13:51 -1.35106 -137.80835 39854 ft 473 kts 217°
2026-04-28 13:52 -1.40751 -137.84213 39849 ft 472 kts 217°
2026-04-28 13:52 -1.46396 -137.87592 39854 ft 472 kts 217°
2026-04-28 13:53 -1.52027 -137.90964 39853 ft 472 kts 217°
2026-04-28 13:53 -1.57629 -137.94318 39851 ft 472 kts 217°
2026-04-28 13:54 -1.63266 -137.97694 39853 ft 472 kts 217°
2026-04-28 13:54 -1.68902 -138.01068 39856 ft 472 kts 217°
2026-04-28 13:55 -1.74528 -138.04437 39854 ft 472 kts 217°
2026-04-28 13:55 -1.80177 -138.07820 39853 ft 472 kts 217°
2026-04-28 13:56 -1.85793 -138.11184 39853 ft 472 kts 217°
2026-04-28 13:56 -1.91434 -138.14563 39858 ft 472 kts 217°
2026-04-28 13:57 -1.97071 -138.17939 39853 ft 472 kts 217°
2026-04-28 13:57 -2.02696 -138.21309 39854 ft 472 kts 217°
2026-04-28 13:58 -2.08321 -138.24679 39863 ft 472 kts 217°
2026-04-28 13:58 -2.13975 -138.28066 39861 ft 471 kts 217°
2026-04-28 13:59 -2.19568 -138.31418 39861 ft 471 kts 217°
2026-04-28 13:59 -2.25204 -138.34795 39861 ft 471 kts 217°
2026-04-28 14:00 -2.30821 -138.38162 39866 ft 472 kts 217°
2026-04-28 14:00 -2.36478 -138.41554 39863 ft 474 kts 217°
2026-04-28 14:01 -2.42138 -138.44947 39867 ft 474 kts 217°
2026-04-28 14:01 -2.47793 -138.48336 39861 ft 474 kts 217°
2026-04-28 14:02 -2.53462 -138.51735 39862 ft 474 kts 217°
2026-04-28 14:02 -2.59118 -138.55126 39861 ft 474 kts 217°
2026-04-28 14:03 -2.64778 -138.58520 39864 ft 474 kts 217°
2026-04-28 14:03 -2.70395 -138.61889 39864 ft 474 kts 217°
2026-04-28 14:04 -2.76064 -138.65289 39871 ft 474 kts 217°
2026-04-28 14:04 -2.81703 -138.68672 39865 ft 473 kts 217°
2026-04-28 14:05 -2.87355 -138.72063 39863 ft 473 kts 216°
2026-04-28 14:05 -2.93046 -138.75480 39864 ft 477 kts 216°
2026-04-28 14:06 -2.98709 -138.78879 39864 ft 478 kts 216°
2026-04-28 14:06 -3.04423 -138.82306 39865 ft 478 kts 216°
2026-04-28 14:07 -3.10119 -138.85725 39868 ft 477 kts 216°
2026-04-28 14:07 -3.15808 -138.89140 39867 ft 477 kts 216°
2026-04-28 14:08 -3.21529 -138.92575 39870 ft 479 kts 216°
2026-04-28 14:08 -3.27257 -138.96015 39853 ft 480 kts 216°
2026-04-28 14:09 -3.32987 -138.99456 39869 ft 480 kts 216°
2026-04-28 14:09 -3.38696 -139.02884 39870 ft 480 kts 216°
2026-04-28 14:10 -3.44433 -139.06330 39868 ft 480 kts 216°
2026-04-28 14:10 -3.50135 -139.09756 39877 ft 481 kts 216°
2026-04-28 14:11 -3.55871 -139.13203 39863 ft 481 kts 216°
2026-04-28 14:11 -3.61642 -139.16671 39858 ft 481 kts 216°
2026-04-28 14:12 -3.67391 -139.20126 39865 ft 481 kts 216°
2026-04-28 14:12 -3.73133 -139.23578 39878 ft 481 kts 216°
2026-04-28 14:13 -3.78860 -139.27022 39880 ft 481 kts 216°
2026-04-28 14:13 -3.84593 -139.30469 39860 ft 481 kts 216°
2026-04-28 14:14 -3.90325 -139.33917 39859 ft 482 kts 216°
2026-04-28 14:14 -3.96104 -139.37393 39877 ft 482 kts 216°
2026-04-28 14:15 -4.01820 -139.40831 39878 ft 482 kts 216°
2026-04-28 14:15 -4.07571 -139.44292 39861 ft 482 kts 216°
2026-04-28 14:16 -4.13323 -139.47754 39859 ft 483 kts 216°
2026-04-28 14:16 -4.19088 -139.51224 39857 ft 483 kts 216°
2026-04-28 14:17 -4.24862 -139.54700 39879 ft 483 kts 216°
2026-04-28 14:17 -4.30604 -139.58158 39859 ft 483 kts 216°
2026-04-28 14:18 -4.36373 -139.61632 39863 ft 483 kts 216°
2026-04-28 14:18 -4.42149 -139.65111 39863 ft 484 kts 216°
2026-04-28 14:19 -4.47924 -139.68591 39863 ft 484 kts 216°
2026-04-28 14:19 -4.53707 -139.72075 39863 ft 484 kts 216°
2026-04-28 14:20 -4.59445 -139.75533 39865 ft 484 kts 216°
2026-04-28 14:20 -4.65220 -139.79014 39863 ft 484 kts 216°
2026-04-28 14:21 -4.70988 -139.82491 39860 ft 483 kts 216°
2026-04-28 14:21 -4.76745 -139.85963 39861 ft 482 kts 216°
2026-04-28 14:22 -4.82469 -139.89416 39861 ft 482 kts 216°
2026-04-28 14:22 -4.88232 -139.92893 39865 ft 482 kts 216°
2026-04-28 14:23 -4.94003 -139.96376 39861 ft 482 kts 216°
2026-04-28 14:23 -4.99711 -139.99821 39861 ft 482 kts 216°
2026-04-28 14:24 -5.05486 -140.03276 39859 ft 483 kts 216°
2026-04-28 14:24 -5.11275 -140.06694 39857 ft 483 kts 216°
2026-04-28 14:25 -5.17060 -140.10114 39855 ft 483 kts 216°
2026-04-28 14:25 -5.22847 -140.13543 39855 ft 483 kts 216°
2026-04-28 14:26 -5.28616 -140.16967 39855 ft 483 kts 216°
2026-04-28 14:26 -5.34397 -140.20398 39858 ft 483 kts 216°
2026-04-28 14:27 -5.40165 -140.23823 39858 ft 483 kts 216°
2026-04-28 14:27 -5.45970 -140.27270 39858 ft 483 kts 216°
2026-04-28 14:28 -5.50784 -140.30128 39857 ft 483 kts 216°
2026-04-28 14:28 -5.56594 -140.33580 39855 ft 483 kts 216°
2026-04-28 14:29 -5.62353 -140.37002 39855 ft 483 kts 216°
2026-04-28 14:29 -5.68142 -140.40442 39857 ft 483 kts 216°
2026-04-28 14:30 -5.73930 -140.43883 39855 ft 483 kts 216°
2026-04-28 14:30 -5.79736 -140.47335 39859 ft 483 kts 216°
2026-04-28 14:31 -5.85505 -140.50766 39855 ft 483 kts 216°
2026-04-28 14:31 -5.91286 -140.54204 39861 ft 483 kts 216°
2026-04-28 14:32 -5.97074 -140.57648 39864 ft 483 kts 216°
2026-04-28 14:32 -6.02845 -140.61083 39861 ft 483 kts 216°
2026-04-28 14:33 -6.08630 -140.64527 39861 ft 483 kts 216°
2026-04-28 14:33 -6.14430 -140.67981 39861 ft 483 kts 216°
2026-04-28 14:34 -6.23055 -140.73118 39864 ft 483 kts 216°
2026-04-28 14:35 -6.28845 -140.76569 39860 ft 483 kts 216°
2026-04-28 14:35 -6.34639 -140.80022 39863 ft 483 kts 216°
2026-04-28 14:36 -6.40430 -140.83474 39864 ft 483 kts 216°
2026-04-28 14:36 -6.46190 -140.86909 39865 ft 483 kts 216°
2026-04-28 14:37 -6.51940 -140.90338 39868 ft 483 kts 216°
2026-04-28 14:37 -6.57738 -140.93798 39863 ft 483 kts 216°
2026-04-28 14:38 -6.63509 -140.97242 39863 ft 483 kts 216°
2026-04-28 14:38 -6.69281 -141.00687 39865 ft 483 kts 216°
2026-04-28 14:39 -6.75062 -141.04139 39865 ft 483 kts 216°
2026-04-28 14:39 -6.80837 -141.07589 39874 ft 483 kts 216°
2026-04-28 14:40 -6.86575 -141.11018 39865 ft 483 kts 216°
2026-04-28 14:40 -6.92351 -141.14469 39867 ft 483 kts 216°
2026-04-28 14:41 -6.98131 -141.17925 39867 ft 483 kts 216°
2026-04-28 14:41 -7.03912 -141.21382 39867 ft 483 kts 216°
2026-04-28 14:42 -7.09699 -141.24843 39867 ft 483 kts 216°
2026-04-28 14:42 -7.15442 -141.28280 39869 ft 483 kts 216°
2026-04-28 14:43 -7.21215 -141.31735 39867 ft 483 kts 216°
2026-04-28 14:43 -7.26989 -141.35192 39866 ft 482 kts 216°
2026-04-28 14:44 -7.32764 -141.38650 39869 ft 482 kts 216°
2026-04-28 14:44 -7.38541 -141.42111 39873 ft 482 kts 216°
2026-04-28 14:45 -7.44282 -141.45551 39874 ft 482 kts 216°
2026-04-28 14:45 -7.50072 -141.49022 39867 ft 483 kts 216°
2026-04-28 14:46 -7.55850 -141.52487 39870 ft 483 kts 216°
2026-04-28 14:46 -7.61643 -141.55961 39872 ft 484 kts 216°
2026-04-28 14:47 -7.67404 -141.59418 39871 ft 483 kts 216°
2026-04-28 14:47 -7.73164 -141.62875 39871 ft 483 kts 216°
2026-04-28 14:48 -7.78962 -141.66357 39868 ft 484 kts 216°
2026-04-28 14:48 -7.84764 -141.69842 39872 ft 485 kts 216°
2026-04-28 14:49 -7.90554 -141.73319 39871 ft 485 kts 216°
2026-04-28 14:49 -7.96341 -141.76797 39869 ft 485 kts 216°
2026-04-28 14:50 -8.02141 -141.80284 39871 ft 485 kts 216°
2026-04-28 14:50 -8.07905 -141.83752 39866 ft 485 kts 215°
2026-04-28 14:51 -8.13712 -141.87246 39868 ft 485 kts 215°
2026-04-28 14:51 -8.19492 -141.90723 39869 ft 485 kts 215°
2026-04-28 14:52 -8.25304 -141.94221 39886 ft 485 kts 215°
2026-04-28 14:52 -8.31086 -141.97703 39885 ft 485 kts 215°
2026-04-28 14:53 -8.36885 -142.01196 39868 ft 485 kts 215°
2026-04-28 14:53 -8.42691 -142.04696 39878 ft 486 kts 215°
2026-04-28 14:54 -8.48493 -142.08194 39877 ft 485 kts 214°
2026-04-28 14:54 -8.54283 -142.11685 39875 ft 484 kts 214°
2026-04-28 14:55 -8.60063 -142.15171 39874 ft 484 kts 214°
2026-04-28 14:55 -8.65835 -142.18655 39878 ft 484 kts 215°
2026-04-28 14:56 -8.71633 -142.22155 39878 ft 484 kts 214°
2026-04-28 14:56 -8.77431 -142.25657 39875 ft 484 kts 214°
2026-04-28 14:57 -8.83222 -142.29156 39884 ft 484 kts 214°
2026-04-28 14:57 -8.88988 -142.32640 39878 ft 483 kts 214°
2026-04-28 14:58 -8.94746 -142.36121 39877 ft 483 kts 214°
2026-04-28 14:58 -9.00526 -142.39617 39914 ft 483 kts 214°
2026-04-28 14:59 -9.06287 -142.43103 39909 ft 483 kts 214°
2026-04-28 14:59 -9.12047 -142.46590 39909 ft 484 kts 214°
2026-04-28 15:00 -9.17799 -142.50072 39910 ft 484 kts 214°
2026-04-28 15:00 -9.23576 -142.53573 39911 ft 483 kts 214°
2026-04-28 15:01 -9.29314 -142.57049 39910 ft 482 kts 214°
2026-04-28 15:01 -9.35068 -142.60537 39913 ft 482 kts 213°
2026-04-28 15:02 -9.40810 -142.64019 39908 ft 482 kts 213°
2026-04-28 15:02 -9.46586 -142.67523 39907 ft 482 kts 213°
2026-04-28 15:03 -9.52298 -142.70990 39910 ft 482 kts 213°
2026-04-28 15:03 -9.58065 -142.74491 39912 ft 482 kts 213°
2026-04-28 15:04 -9.63821 -142.77988 39912 ft 481 kts 213°
2026-04-28 15:04 -9.69558 -142.81474 39911 ft 481 kts 213°
2026-04-28 15:05 -9.75300 -142.84964 39913 ft 481 kts 213°
2026-04-28 15:05 -9.81011 -142.88437 39910 ft 481 kts 213°
2026-04-28 15:06 -9.86748 -142.91928 39913 ft 481 kts 213°
2026-04-28 15:06 -9.92485 -142.95419 39909 ft 481 kts 213°
2026-04-28 15:07 -9.98225 -142.98918 39911 ft 481 kts 213°
2026-04-28 15:07 -10.03654 -143.02847 39910 ft 477 kts 218°
2026-04-28 15:08 -10.08885 -143.06907 39913 ft 477 kts 219°
2026-04-28 15:08 -10.14130 -143.11026 39913 ft 476 kts 219°
2026-04-28 15:09 -10.19379 -143.15145 39915 ft 477 kts 219°
2026-04-28 15:09 -10.24632 -143.19259 39914 ft 475 kts 219°
2026-04-28 15:10 -10.29876 -143.23367 39920 ft 476 kts 219°
2026-04-28 15:10 -10.35111 -143.27468 39918 ft 473 kts 218°
2026-04-28 15:11 -10.40294 -143.31529 39917 ft 473 kts 218°
2026-04-28 15:11 -10.45495 -143.35608 39916 ft 472 kts 218°
2026-04-28 15:12 -10.50704 -143.39694 39920 ft 473 kts 218°
2026-04-28 15:12 -10.55903 -143.43775 39922 ft 471 kts 218°
2026-04-28 15:13 -10.61110 -143.47863 39921 ft 472 kts 218°
2026-04-28 15:13 -10.66269 -143.51916 39922 ft 471 kts 217°
2026-04-28 15:14 -10.71466 -143.56000 39922 ft 472 kts 217°
2026-04-28 15:14 -10.76651 -143.60075 39920 ft 471 kts 217°
2026-04-28 15:15 -10.81857 -143.64170 39913 ft 472 kts 217°
2026-04-28 15:15 -10.86169 -143.67562 39929 ft 471 kts 217°
2026-04-28 15:16 -10.91369 -143.71656 39921 ft 472 kts 217°
2026-04-28 15:16 -10.97392 -143.76401 39925 ft 472 kts 217°
2026-04-28 15:17 -11.01743 -143.79829 39923 ft 472 kts 216°
2026-04-28 15:17 -11.06933 -143.83918 39922 ft 472 kts 217°
2026-04-28 15:18 -11.12125 -143.88013 39922 ft 472 kts 217°
2026-04-28 15:18 -11.17286 -143.92084 39925 ft 472 kts 217°
2026-04-28 15:19 -11.22472 -143.96178 39928 ft 472 kts 217°
2026-04-28 15:19 -11.27670 -144.00283 39923 ft 472 kts 216°
2026-04-28 15:20 -11.32858 -144.04382 39926 ft 472 kts 216°
2026-04-28 15:20 -11.38049 -144.08485 39925 ft 472 kts 216°
2026-04-28 15:21 -11.43212 -144.12567 39926 ft 472 kts 216°
2026-04-28 15:21 -11.48404 -144.16676 39926 ft 472 kts 216°
2026-04-28 15:22 -11.53591 -144.20782 39927 ft 472 kts 216°
2026-04-28 15:22 -11.58778 -144.24890 39926 ft 472 kts 216°
2026-04-28 15:23 -11.63963 -144.28999 39929 ft 471 kts 216°
2026-04-28 15:23 -11.69116 -144.33084 39929 ft 471 kts 216°
2026-04-28 15:24 -11.74294 -144.37190 39931 ft 471 kts 216°
2026-04-28 15:24 -11.79467 -144.41294 39932 ft 471 kts 216°
2026-04-28 15:25 -11.84638 -144.45400 39930 ft 471 kts 216°
2026-04-28 15:25 -11.89786 -144.49488 39933 ft 471 kts 216°
2026-04-28 15:26 -11.94964 -144.53603 39932 ft 470 kts 216°
2026-04-28 15:26 -12.00127 -144.57708 39937 ft 470 kts 216°
2026-04-28 15:27 -12.05252 -144.61785 39933 ft 470 kts 216°
2026-04-28 15:27 -12.10411 -144.65891 39937 ft 470 kts 216°
2026-04-28 15:28 -12.15565 -144.69994 39937 ft 470 kts 216°
2026-04-28 15:28 -12.20715 -144.74097 39937 ft 470 kts 216°
2026-04-28 15:29 -12.25867 -144.78204 39935 ft 470 kts 216°
2026-04-28 15:29 -12.31024 -144.82316 39937 ft 470 kts 216°
2026-04-28 15:30 -12.36183 -144.86432 39937 ft 470 kts 216°
2026-04-28 15:30 -12.41349 -144.90556 39939 ft 470 kts 216°
2026-04-28 15:31 -12.46480 -144.94654 39937 ft 470 kts 216°
2026-04-28 15:31 -12.51632 -144.98771 39938 ft 470 kts 216°
2026-04-28 15:32 -12.56792 -145.02897 39934 ft 470 kts 216°
2026-04-28 15:32 -12.61951 -145.07024 39936 ft 470 kts 216°
2026-04-28 15:33 -12.67099 -145.11145 39935 ft 470 kts 216°
2026-04-28 15:33 -12.72261 -145.15278 39941 ft 471 kts 216°
2026-04-28 15:34 -12.77417 -145.19409 39940 ft 471 kts 216°
2026-04-28 15:34 -12.82547 -145.23521 39938 ft 471 kts 216°
2026-04-28 15:35 -12.87705 -145.27659 39939 ft 470 kts 216°
2026-04-28 15:35 -12.95416 -145.33848 39941 ft 469 kts 216°
2026-04-28 15:36 -13.00557 -145.37977 39945 ft 469 kts 216°
2026-04-28 15:36 -13.05687 -145.42100 39944 ft 468 kts 216°
2026-04-28 15:37 -13.10814 -145.46222 39947 ft 468 kts 216°
2026-04-28 15:37 -13.15083 -145.49655 39947 ft 468 kts 216°
2026-04-28 15:38 -13.21079 -145.54481 39946 ft 467 kts 216°
2026-04-28 15:38 -13.26183 -145.58593 39947 ft 464 kts 216°
2026-04-28 15:39 -13.31228 -145.62658 39951 ft 464 kts 216°
2026-04-28 15:39 -13.36303 -145.66749 39946 ft 463 kts 216°
2026-04-28 15:40 -13.41371 -145.70838 39947 ft 462 kts 216°
2026-04-28 15:40 -13.46428 -145.74919 39947 ft 462 kts 216°
2026-04-28 15:41 -13.51461 -145.78984 39943 ft 462 kts 216°
2026-04-28 15:41 -13.56515 -145.83067 39950 ft 461 kts 216°
2026-04-28 15:42 -13.61561 -145.87147 39949 ft 461 kts 216°
2026-04-28 15:42 -13.66600 -145.91223 39951 ft 461 kts 216°
2026-04-28 15:43 -13.71638 -145.95301 39950 ft 460 kts 216°
2026-04-28 15:43 -13.76639 -145.99351 39950 ft 460 kts 216°
2026-04-28 15:44 -13.81667 -146.03425 39950 ft 460 kts 216°
2026-04-28 15:44 -13.86700 -146.07505 39949 ft 460 kts 216°
2026-04-28 15:45 -13.91729 -146.11584 39949 ft 460 kts 216°
2026-04-28 15:45 -13.96752 -146.15661 39952 ft 460 kts 216°
2026-04-28 15:46 -14.01779 -146.19744 39953 ft 460 kts 216°
2026-04-28 15:46 -14.06799 -146.23824 39950 ft 459 kts 216°
2026-04-28 15:47 -14.11787 -146.27879 39950 ft 459 kts 216°
2026-04-28 15:47 -14.16804 -146.31960 39950 ft 459 kts 216°
2026-04-28 15:48 -14.21815 -146.36039 39958 ft 459 kts 216°
2026-04-28 15:48 -14.26824 -146.40119 39958 ft 459 kts 216°
2026-04-28 15:49 -14.31832 -146.44199 39958 ft 459 kts 216°
2026-04-28 15:49 -14.36840 -146.48283 39958 ft 459 kts 217°
2026-04-28 15:50 -14.41848 -146.52369 39957 ft 459 kts 217°
2026-04-28 15:50 -14.46854 -146.56456 39957 ft 459 kts 217°
2026-04-28 15:51 -14.51854 -146.60540 39961 ft 458 kts 217°
2026-04-28 15:51 -14.56820 -146.64599 39958 ft 458 kts 217°
2026-04-28 15:52 -14.61817 -146.68686 39958 ft 458 kts 217°
2026-04-28 15:52 -14.66816 -146.72776 39958 ft 458 kts 217°
2026-04-28 15:53 -14.71807 -146.76863 39960 ft 458 kts 217°
2026-04-28 15:53 -14.76805 -146.80958 39976 ft 458 kts 217°
2026-04-28 15:54 -14.81797 -146.85050 39970 ft 458 kts 217°
2026-04-28 15:54 -14.86794 -146.89149 39953 ft 458 kts 217°
2026-04-28 15:55 -14.91777 -146.93240 39953 ft 458 kts 217°
2026-04-28 15:55 -14.96772 -146.97342 39965 ft 458 kts 217°
2026-04-28 15:56 -15.01754 -147.01475 39971 ft 459 kts 219°
2026-04-28 15:56 -15.06540 -147.05835 39972 ft 459 kts 220°
2026-04-28 15:57 -15.11318 -147.10186 39954 ft 459 kts 220°
2026-04-28 15:57 -15.16134 -147.14548 39954 ft 460 kts 219°
2026-04-28 15:58 -15.20944 -147.18899 39959 ft 460 kts 219°
2026-04-28 15:58 -15.25778 -147.23271 39976 ft 460 kts 220°
2026-04-28 15:59 -15.29769 -147.26883 39956 ft 460 kts 219°
2026-04-28 15:59 -15.35387 -147.31970 39973 ft 460 kts 220°
2026-04-28 16:00 -15.40195 -147.36326 39973 ft 460 kts 220°
2026-04-28 16:00 -15.45015 -147.40696 39974 ft 460 kts 220°
2026-04-28 16:01 -15.49845 -147.45077 39971 ft 460 kts 220°
2026-04-28 16:01 -15.54667 -147.49454 39970 ft 461 kts 220°
2026-04-28 16:02 -15.59482 -147.53828 39968 ft 461 kts 220°
2026-04-28 16:02 -15.64287 -147.58196 39969 ft 461 kts 220°
2026-04-28 16:03 -15.69116 -147.62588 39967 ft 461 kts 220°
2026-04-28 16:03 -15.73934 -147.66973 39972 ft 461 kts 220°
2026-04-28 16:04 -15.77943 -147.70624 39970 ft 461 kts 220°
2026-04-28 16:04 -15.82776 -147.75027 39974 ft 462 kts 220°
2026-04-28 16:05 -15.87605 -147.79431 39971 ft 461 kts 220°
2026-04-28 16:05 -15.92396 -147.83803 39968 ft 461 kts 220°
2026-04-28 16:06 -15.97224 -147.88211 39973 ft 461 kts 220°
2026-04-28 16:06 -16.02050 -147.92620 39978 ft 461 kts 220°
2026-04-28 16:07 -16.06868 -147.97026 39974 ft 459 kts 220°
2026-04-28 16:08 -16.14032 -148.03581 39982 ft 456 kts 220°
2026-04-28 16:08 -16.18770 -148.07920 39978 ft 456 kts 220°
2026-04-28 16:09 -16.25911 -148.14465 39975 ft 456 kts 220°
2026-04-28 16:10 -16.33052 -148.21017 39977 ft 456 kts 220°
2026-04-28 16:10 -16.40156 -148.27542 39982 ft 453 kts 220°
2026-04-28 16:11 -16.49590 -148.36216 39436 ft 455 kts 220°
2026-04-28 16:12 -16.54347 -148.40595 38987 ft 458 kts 220°
2026-04-28 16:12 -16.56742 -148.42800 38748 ft 460 kts 220°
2026-04-28 16:13 -16.61546 -148.47226 38224 ft 462 kts 220°
2026-04-28 16:13 -16.63956 -148.49448 37940 ft 463 kts 220°
2026-04-28 16:13 -16.68785 -148.53903 37404 ft 464 kts 220°
2026-04-28 16:14 -16.73632 -148.58376 36834 ft 465 kts 220°
2026-04-28 16:14 -16.78451 -148.62827 35546 ft 462 kts 220°
2026-04-28 16:15 -16.83283 -148.67293 34052 ft 466 kts 220°
2026-04-28 16:15 -16.85687 -148.69516 33145 ft 469 kts 220°
2026-04-28 16:15 -16.88137 -148.71782 32295 ft 471 kts 221°
2026-04-28 16:16 -16.93076 -148.76353 30506 ft 478 kts 221°
2026-04-28 16:16 -16.95573 -148.78666 29549 ft 482 kts 221°
2026-04-28 16:17 -17.00533 -148.83263 28298 ft 473 kts 221°
2026-04-28 16:17 -17.02993 -148.85545 27655 ft 469 kts 221°
2026-04-28 16:17 -17.05417 -148.87815 27015 ft 466 kts 223°
2026-04-28 16:17 -17.07551 -148.90299 26322 ft 465 kts 232°
2026-04-28 16:18 -17.09454 -148.93033 25656 ft 464 kts 234°
2026-04-28 16:18 -17.11311 -148.95789 25027 ft 463 kts 234°
2026-04-28 16:18 -17.13163 -148.98537 24398 ft 461 kts 234°
2026-04-28 16:18 -17.15011 -149.01273 23774 ft 460 kts 234°
2026-04-28 16:19 -17.16861 -149.04007 23081 ft 459 kts 235°
2026-04-28 16:19 -17.18698 -149.06723 22431 ft 456 kts 235°
2026-04-28 16:19 -17.20523 -149.09420 21801 ft 452 kts 235°
2026-04-28 16:19 -17.22333 -149.12094 21178 ft 449 kts 236°
2026-04-28 16:20 -17.24130 -149.14750 20558 ft 446 kts 236°
2026-04-28 16:20 -17.25915 -149.17390 19921 ft 443 kts 236°
2026-04-28 16:20 -17.27691 -149.20016 19293 ft 440 kts 236°
2026-04-28 16:20 -17.29429 -149.22588 18696 ft 438 kts 236°
2026-04-28 16:21 -17.31180 -149.25180 18040 ft 436 kts 236°
2026-04-28 16:21 -17.32924 -149.27763 17380 ft 432 kts 236°
2026-04-28 16:21 -17.34649 -149.30319 16757 ft 428 kts 236°
2026-04-28 16:21 -17.36361 -149.32859 16134 ft 424 kts 236°
2026-04-28 16:22 -17.38056 -149.35378 15506 ft 421 kts 236°
2026-04-28 16:22 -17.39733 -149.37866 14902 ft 417 kts 235°
2026-04-28 16:22 -17.41400 -149.40341 14286 ft 414 kts 235°
2026-04-28 16:22 -17.43055 -149.42798 13675 ft 411 kts 235°
2026-04-28 16:23 -17.44699 -149.45242 13031 ft 407 kts 235°
2026-04-28 16:23 -17.46323 -149.47655 12418 ft 402 kts 235°
2026-04-28 16:23 -17.47925 -149.50039 11816 ft 398 kts 235°
2026-04-28 16:23 -17.49489 -149.52366 11595 ft 383 kts 234°
2026-04-28 16:24 -17.50971 -149.54572 11486 ft 366 kts 234°
2026-04-28 16:24 -17.52401 -149.56701 11375 ft 349 kts 234°
2026-04-28 16:24 -17.53771 -149.58742 11236 ft 335 kts 234°
2026-04-28 16:24 -17.55087 -149.60703 11091 ft 322 kts 235°
2026-04-28 16:25 -17.56420 -149.62535 10937 ft 310 kts 231°
2026-04-28 16:25 -17.57751 -149.64266 10729 ft 301 kts 231°
2026-04-28 16:25 -17.59050 -149.65960 10356 ft 298 kts 231°
2026-04-28 16:25 -17.60337 -149.67652 10025 ft 294 kts 231°
2026-04-28 16:26 -17.61609 -149.69334 9696 ft 296 kts 231°
2026-04-28 16:26 -17.62892 -149.71035 9356 ft 299 kts 231°
2026-04-28 16:26 -17.64177 -149.72744 9044 ft 297 kts 231°
2026-04-28 16:26 -17.65457 -149.74447 8716 ft 296 kts 231°
2026-04-28 16:27 -17.66712 -149.76117 8411 ft 295 kts 231°
2026-04-28 16:27 -17.67981 -149.77809 8091 ft 294 kts 231°
2026-04-28 16:27 -17.70881 -149.80748 7440 ft 289 kts 202°
2026-04-28 16:28 -17.72815 -149.81255 7123 ft 285 kts 186°
2026-04-28 16:28 -17.74788 -149.81503 6816 ft 285 kts 184°
2026-04-28 16:28 -17.76731 -149.81848 6467 ft 285 kts 197°
2026-04-28 16:28 -17.78359 -149.83007 6127 ft 287 kts 230°
2026-04-28 16:29 -17.78892 -149.86944 5476 ft 285 kts 296°
2026-04-28 16:29 -17.75834 -149.89077 4965 ft 272 kts
2026-04-28 16:30 -17.74074 -149.88520 4763 ft 265 kts 37°
2026-04-28 16:30 -17.72945 -149.87119 4704 ft 248 kts 62°
2026-04-28 16:30 -17.72165 -149.85568 4634 ft 234 kts 63°
2026-04-28 16:30 -17.71375 -149.84128 4543 ft 221 kts 58°
2026-04-28 16:31 -17.70540 -149.82832 4452 ft 209 kts 55°
2026-04-28 16:31 -17.69716 -149.81642 4413 ft 194 kts 55°
2026-04-28 16:31 -17.68944 -149.80527 4250 ft 185 kts 56°
2026-04-28 16:31 -17.68205 -149.79444 4008 ft 181 kts 55°
2026-04-28 16:32 -17.67480 -149.78384 3744 ft 178 kts 55°
2026-04-28 16:32 -17.66070 -149.76328 3276 ft 168 kts 55°
2026-04-28 16:32 -17.65394 -149.75341 3053 ft 165 kts 55°
2026-04-28 16:33 -17.64728 -149.74370 2822 ft 164 kts 55°
2026-04-28 16:33 -17.64285 -149.73723 2686 ft 165 kts 55°
2026-04-28 16:33 -17.63390 -149.72417 2405 ft 164 kts 55°
2026-04-28 16:33 -17.62732 -149.71458 2218 ft 165 kts 54°
2026-04-28 16:34 -17.62056 -149.70472 1989 ft 165 kts 54°
2026-04-28 16:34 -17.61388 -149.69498 1776 ft 165 kts 55°
2026-04-28 16:34 -17.60727 -149.68534 1565 ft 165 kts 54°
2026-04-28 16:34 -17.60054 -149.67554 1352 ft 165 kts 55°
2026-04-28 16:35 -17.59384 -149.66576 1143 ft 165 kts 55°
2026-04-28 16:35 -17.58733 -149.65627 957 ft 154 kts 55°
2026-04-28 16:35 -17.58129 -149.64745 758 ft 145 kts 55°
2026-04-28 16:35 -17.57557 -149.63903 547 ft 139 kts 55°
2026-04-28 16:36 -17.57001 -149.63082 329 ft 138 kts 55°
2026-04-28 16:36 -17.56425 -149.62265 172 ft 140 kts 53°
2026-04-28 16:36 -17.55853 -149.61437 20 ft 140 kts 54°
2026-04-28 16:36 -17.55383 -149.60753 16 ft 85 kts 54°
2026-04-28 16:37 -17.55167 -149.60437 14 ft 28 kts 55°
2026-04-28 16:37 -17.55053 -149.60272 13 ft 28 kts 54°
2026-04-28 16:37 -17.54940 -149.60117 14 ft 21 kts 42°
2026-04-28 16:38 -17.54905 -149.60059 14 ft 7 kts 200°
2026-04-28 16:38 -17.54941 -149.60111 14 ft 11 kts 235°
2026-04-28 16:38 -17.54994 -149.60187 13 ft 15 kts 234°
2026-04-28 16:38 -17.55059 -149.60284 13 ft 20 kts 235°
2026-04-28 16:39 -17.55159 -149.60429 14 ft 27 kts 233°
2026-04-28 16:39 -17.55271 -149.60590 16 ft 27 kts 234°
2026-04-28 16:39 -17.55384 -149.60757 16 ft 29 kts 233°
2026-04-28 16:39 -17.55506 -149.60926 20 ft 29 kts 233°
2026-04-28 16:40 -17.55619 -149.61094 15 ft 24 kts 236°
2026-04-28 16:40 -17.55643 -149.61122 15 ft 8 kts 219°
2026-04-28 16:40 -17.55706 -149.61117 15 ft 13 kts 146°
2026-04-28 16:40 -17.55777 -149.61067 14 ft 10 kts 147°
2026-04-28 16:41 -17.55825 -149.61033 14 ft 0 kts 144°
2026-04-28 16:41 -17.55828 -149.61031 14 ft 5 kts 144°
2026-04-28 16:41 -17.55841 -149.61021 14 ft 0 kts 144°